When you browse on this site, cookies collect data to enhance your experience and personalize the content and advertising you see.
Visit our Privacy Policy to learn more. By continuing to use the site, you agree to this use of cookies and data.
  • In Czech Republic
  • List of Countries
  • For 7 days
  • Water Temperature
  • Satellite Maps
  • Weather Map
  • Weather Widgets
  • user-avatar
    Login

    Hourly Weather Zheleznaya Borovina

    Today, 16 July, Tuesday

    Time Temperature Precipitation Wind Pressure Humidity
    00:00 +13°C° 0 mm 1 mps 742 mmHg 91%
    01:00 +13°C° 0 mm 1 mps 742 mmHg 92%
    02:00 +12°C° 0 mm 1 mps 742 mmHg 92%
    03:00 +13°C° 0.1 mm 1 mps 742 mmHg 92%
    04:00 +13°C° 0.1 mm 1 mps 742 mmHg 92%
    05:00 +13°C° 0.1 mm 1 mps 742 mmHg 92%
    06:00 +15°C° 0.1 mm 1 mps 742 mmHg 86%
    07:00 +16°C° 0.1 mm 1 mps 742 mmHg 81%
    08:00 +17°C° 0 mm 0 mps 742 mmHg 77%
    09:00 +19°C° 0.5 mm 0 mps 742 mmHg 69%
    10:00 +22°C° 0.5 mm 1 mps 742 mmHg 61%
    11:00 +24°C° 0.5 mm 1 mps 741 mmHg 54%
    12:00 +24°C° 0.2 mm 1 mps 741 mmHg 54%
    13:00 +24°C° 0.2 mm 1 mps 741 mmHg 55%
    14:00 +23°C° 0.2 mm 2 mps 740 mmHg 56%
    15:00 +23°C° 0.7 mm 2 mps 740 mmHg 62%
    16:00 +22°C° 0.7 mm 1 mps 740 mmHg 68%
    17:00 +22°C° 0.7 mm 1 mps 740 mmHg 74%
    18:00 +21°C° 0.2 mm 1 mps 740 mmHg 78%
    19:00 +19°C° 0.2 mm 1 mps 739 mmHg 82%
    20:00 +18°C° 0.2 mm 1 mps 739 mmHg 86%
    21:00 +16°C° 0.4 mm 1 mps 739 mmHg 89%
    22:00 +15°C° 0.4 mm 2 mps 739 mmHg 91%
    23:00 +15°C° 0.4 mm 2 mps 739 mmHg 93%

    Tomorrow, 17 July, Wednesday

    Time Temperature Precipitation Wind Pressure Humidity
    00:00 +14°C° 0.1 mm 2 mps 739 mmHg 93%
    01:00 +14°C° 0.1 mm 1 mps 739 mmHg 93%
    02:00 +14°C° 0.1 mm 1 mps 739 mmHg 93%
    03:00 +14°C° 0.7 mm 1 mps 739 mmHg 94%
    04:00 +14°C° 0.7 mm 1 mps 738 mmHg 95%
    05:00 +14°C° 0.7 mm 1 mps 738 mmHg 97%
    06:00 +14°C° 0.6 mm 1 mps 738 mmHg 94%
    07:00 +15°C° 0.6 mm 1 mps 738 mmHg 92%
    08:00 +16°C° 0.6 mm 2 mps 738 mmHg 89%
    09:00 +16°C° 0.5 mm 2 mps 738 mmHg 86%
    10:00 +17°C° 0.5 mm 3 mps 738 mmHg 83%
    11:00 +17°C° 0.5 mm 4 mps 738 mmHg 81%
    12:00 +18°C° 0.1 mm 4 mps 738 mmHg 76%
    13:00 +18°C° 0.1 mm 4 mps 738 mmHg 71%
    14:00 +19°C° 0.1 mm 3 mps 738 mmHg 66%
    15:00 +19°C° 0.3 mm 3 mps 738 mmHg 69%
    16:00 +19°C° 0.3 mm 3 mps 738 mmHg 72%
    17:00 +19°C° 0.3 mm 3 mps 738 mmHg 75%
    18:00 +17°C° 0.5 mm 2 mps 737 mmHg 80%
    19:00 +16°C° 0.5 mm 2 mps 737 mmHg 84%
    20:00 +15°C° 0.5 mm 2 mps 737 mmHg 88%
    21:00 +14°C° 0.1 mm 2 mps 737 mmHg 90%
    22:00 +13°C° 0.1 mm 2 mps 738 mmHg 92%
    23:00 +13°C° 0.1 mm 2 mps 738 mmHg 94%

    Day after tomorrow, 18 July, Thursday

    Time Temperature Precipitation Wind Pressure Humidity
    00:00 +12°C° 0 mm 2 mps 738 mmHg 95%
    01:00 +12°C° 0 mm 2 mps 738 mmHg 95%
    02:00 +10°C° 0 mm 2 mps 738 mmHg 96%
    03:00 +10°C° 0 mm 2 mps 738 mmHg 97%
    04:00 +10°C° 0 mm 2 mps 738 mmHg 97%
    05:00 +10°C° 0 mm 2 mps 738 mmHg 98%
    06:00 +13°C° 0 mm 2 mps 738 mmHg 94%
    07:00 +13°C° 0 mm 3 mps 738 mmHg 91%
    08:00 +14°C° 0 mm 3 mps 738 mmHg 88%
    09:00 +16°C° 0.1 mm 3 mps 738 mmHg 86%
    10:00 +16°C° 0.1 mm 3 mps 738 mmHg 84%
    11:00 +17°C° 0.1 mm 4 mps 738 mmHg 81%
    12:00 +17°C° 0.7 mm 4 mps 739 mmHg 83%
    13:00 +17°C° 0.7 mm 4 mps 739 mmHg 84%
    14:00 +18°C° 0.7 mm 4 mps 739 mmHg 86%
    15:00 +17°C° 0.2 mm 4 mps 739 mmHg 86%
    16:00 +17°C° 0.2 mm 4 mps 739 mmHg 87%
    17:00 +17°C° 0.2 mm 3 mps 739 mmHg 88%
    18:00 +16°C° 0.4 mm 3 mps 739 mmHg 90%
    19:00 +16°C° 0.4 mm 3 mps 739 mmHg 92%
    20:00 +16°C° 0.4 mm 3 mps 739 mmHg 94%
    21:00 +14°C° 0.1 mm 3 mps 739 mmHg 95%
    22:00 +14°C° 0.1 mm 3 mps 740 mmHg 96%
    23:00 +13°C° 0.1 mm 3 mps 740 mmHg 97%

    19 July, Friday

    Time Temperature Precipitation Wind Pressure Humidity
    00:00 +13°C° 0 mm 3 mps 740 mmHg 97%
    01:00 +13°C° 0 mm 3 mps 740 mmHg 97%
    02:00 +12°C° 0 mm 3 mps 740 mmHg 97%
    03:00 +12°C° 0 mm 3 mps 740 mmHg 97%
    04:00 +12°C° 0 mm 3 mps 741 mmHg 96%
    05:00 +12°C° 0 mm 3 mps 741 mmHg 96%
    06:00 +13°C° 0 mm 4 mps 741 mmHg 91%
    07:00 +14°C° 0 mm 4 mps 741 mmHg 87%
    08:00 +15°C° 0 mm 5 mps 742 mmHg 83%
    09:00 +16°C° 0.1 mm 5 mps 742 mmHg 80%
    10:00 +17°C° 0.1 mm 5 mps 742 mmHg 78%
    11:00 +17°C° 0.1 mm 5 mps 743 mmHg 75%
    12:00 +19°C° 0.2 mm 5 mps 743 mmHg 72%
    13:00 +20°C° 0.2 mm 5 mps 743 mmHg 68%
    14:00 +21°C° 0.2 mm 5 mps 743 mmHg 64%
    15:00 +21°C° 0.1 mm 5 mps 743 mmHg 63%
    16:00 +21°C° 0.1 mm 5 mps 743 mmHg 62%
    17:00 +22°C° 0.1 mm 4 mps 743 mmHg 61%
    18:00 +20°C° 0 mm 4 mps 743 mmHg 68%
    19:00 +18°C° 0 mm 3 mps 744 mmHg 74%
    20:00 +17°C° 0 mm 2 mps 744 mmHg 81%
    21:00 +16°C° 0 mm 2 mps 744 mmHg 85%
    22:00 +15°C° 0 mm 2 mps 744 mmHg 88%
    23:00 +14°C° 0 mm 2 mps 745 mmHg 91%

    20 July, Saturday

    Time Temperature Precipitation Wind Pressure Humidity
    00:00 +14°C° 0 mm 2 mps 745 mmHg 92%
    01:00 +13°C° 0 mm 2 mps 745 mmHg 93%
    02:00 +13°C° 0 mm 2 mps 745 mmHg 94%
    03:00 +13°C° 0 mm 2 mps 745 mmHg 93%
    04:00 +13°C° 0 mm 2 mps 746 mmHg 93%
    05:00 +13°C° 0 mm 2 mps 746 mmHg 92%
    06:00 +15°C° 0 mm 2 mps 746 mmHg 86%
    07:00 +17°C° 0 mm 2 mps 746 mmHg 79%
    08:00 +19°C° 0 mm 3 mps 746 mmHg 73%
    09:00 +20°C° 0 mm 3 mps 747 mmHg 67%
    10:00 +21°C° 0 mm 3 mps 747 mmHg 61%
    11:00 +24°C° 0 mm 3 mps 747 mmHg 55%
    12:00 +23°C° 0 mm 4 mps 747 mmHg 53%
    13:00 +25°C° 0 mm 4 mps 747 mmHg 51%
    14:00 +25°C° 0 mm 4 mps 747 mmHg 49%
    15:00 +25°C° 0 mm 4 mps 747 mmHg 51%
    16:00 +25°C° 0 mm 3 mps 747 mmHg 53%
    17:00 +24°C° 0 mm 3 mps 747 mmHg 54%
    18:00 +21°C° 0 mm 3 mps 747 mmHg 62%
    19:00 +20°C° 0 mm 2 mps 747 mmHg 69%
    20:00 +18°C° 0 mm 2 mps 747 mmHg 76%
    21:00 +18°C° 0 mm 1 mps 747 mmHg 78%
    22:00 +16°C° 0 mm 1 mps 748 mmHg 80%
    23:00 +15°C° 0 mm 1 mps 748 mmHg 82%

    21 July, Sunday

    Time Temperature Precipitation Wind Pressure Humidity
    00:00 +14°C° 0 mm 1 mps 748 mmHg 84%
    01:00 +14°C° 0 mm 1 mps 748 mmHg 86%
    02:00 +13°C° 0 mm 1 mps 748 mmHg 88%
    03:00 +13°C° 0 mm 1 mps 748 mmHg 88%
    04:00 +13°C° 0 mm 1 mps 748 mmHg 88%
    05:00 +13°C° 0 mm 1 mps 748 mmHg 88%
    06:00 +16°C° 0 mm 1 mps 749 mmHg 81%
    07:00 +19°C° 0 mm 1 mps 749 mmHg 73%
    08:00 +21°C° 0 mm 1 mps 749 mmHg 66%
    09:00 +22°C° 0 mm 1 mps 749 mmHg 61%
    10:00 +24°C° 0 mm 2 mps 749 mmHg 56%
    11:00 +25°C° 0 mm 2 mps 750 mmHg 51%
    12:00 +25°C° 0 mm 2 mps 749 mmHg 49%
    13:00 +26°C° 0 mm 2 mps 749 mmHg 48%
    14:00 +26°C° 0 mm 3 mps 749 mmHg 47%
    15:00 +26°C° 0 mm 3 mps 749 mmHg 50%
    16:00 +26°C° 0 mm 3 mps 749 mmHg 53%
    17:00 +26°C° 0 mm 3 mps 749 mmHg 55%
    18:00 +24°C° 0 mm 2 mps 749 mmHg 62%
    19:00 +21°C° 0 mm 2 mps 749 mmHg 70%
    20:00 +20°C° 0 mm 1 mps 749 mmHg 77%
    21:00 +19°C° 0 mm 1 mps 749 mmHg 78%
    22:00 +18°C° 0 mm 1 mps 749 mmHg 80%
    23:00 +16°C° 0 mm 1 mps 750 mmHg 82%
    Show more